Regional Weather Roundup
Issued by NWS Cleveland, OH

Home | Current Version | Previous Version | Graphics & Text | Print | Product List | Glossary On
Versions: 1 2 3 4 5 6 7 8 9 10 11 12 13 14 15 16 17 18 19 20 21 22 23 24 25 26 27 28 29 30 31 32 33 34 35 36 37 38 39 40 41 42 43 44 45 46 47 48 49 50
000
ASUS41 KCLE 280002
RWRCLE
OHIO REGIONAL WEATHER ROUNDUP
NATIONAL WEATHER SERVICE CLEVELAND, OH
800 PM EDT TUE JUN 27 2017

NOTE: "FAIR" INDICATES FEW OR NO CLOUDS BELOW 12,000 FEET WITH NO
SIGNIFICANT WEATHER AND/OR OBSTRUCTIONS TO VISIBILITY.

OHZ001>008-015>018-024>027-034-035-043-044-280100-
   NORTHWEST OHIO

CITY           SKY/WX    TMP DP  RH WIND       PRES   REMARKS
DEFIANCE       FAIR      70  45  40 VRB5      30.05S
FINDLAY        FAIR      68  47  46 SW6       30.06S
TOLEDO EXPRESS FAIR      70  46  42 SW9       30.04R
TOLEDO EXEC    PTSUNNY   72  45  37 W12       30.05S
LIMA           FAIR      69  47  45 W9        30.08S
$$

OHZ009>014-019>023-028>033-038-089-280100-
   NORTHEAST OHIO

CITY           SKY/WX    TMP DP  RH WIND       PRES   REMARKS
CLE-HOPKINS    FAIR      69  43  38 SW7       30.08S
CLE-LAKEFRONT  FAIR      67  45  45 SW6       30.05S
CUY CO. ARPT   CLEAR     68  45  42 W7        30.07S
LORAIN-ELYRIA  FAIR      68  41  37 SW6       30.06F
ASHTABULA      FAIR      65  46  50 W8        30.07S
AKRON-CANTON   FAIR      68  43  40 W6        30.08S
WOOSTER        FAIR      67  42  40 SW7       30.09S
MANSFIELD      FAIR      65  45  48 SW5       30.09S
YOUNGSTOWN     FAIR      66  44  45 W6        30.08R
$$

OHZ042-051>053-060>062-070>072-077>081-280100-
  SOUTHWEST OHIO

CITY           SKY/WX    TMP DP  RH WIND       PRES   REMARKS
CINC-COVINGTON FAIR      72  48  42 N3        30.10S
CINC-LUNKEN    FAIR      73  47  39 W3        30.09F
HAMILTON       FAIR      72  49  44 NW5       30.10S
DAYTON         FAIR      70  43  37 N6        30.11S
WRIGHT-PAT AFB FAIR      70  42  36 NW6       30.10R
DAYTON GENERAL FAIR      71  45  39 NW7       30.09S
WILMINGTON     FAIR      70  48  45 VRB5      30.10S
$$

OHZ036-037-039>041-045>050-054>059-063>069-073>076-082>088-280100-
  CENTRAL AND SOUTHEAST OHIO

CITY           SKY/WX    TMP DP  RH WIND       PRES   REMARKS
COLUMBUS       FAIR      68  45  43 W8        30.09R
OSU AIRPORT    FAIR      69  44  40 NW5       30.09S
BOLTON FIELD   FAIR      68  45  42 W6        30.10R
RICKENBACK AFB FAIR      70  43  38 NW7       30.09R
NEWARK         FAIR      70  41  34 NW7       30.09R
MARION         PTSUNNY   69  42  37 SW7       30.09S
LANCASTER      FAIR      68  46  45 W3        30.10R
ZANESVILLE     MOCLDY    70  45  40 W8        30.09R
NEW PHILLY     NOT AVBL
$$




USA.gov is the U.S. government's official web portal to all federal, state and local government web resources and services.